Regional Weather Roundup
Issued by NWS

Home | Current Version | Previous Version | Text Only | Print | Product List | Glossary On
Versions: 1 2 3 4 5 6 7 8 9 10 11 12 13 14 15 16 17 18 19 20 21 22 23 24 25 26 27 28 29 30 31 32 33 34 35 36 37 38 39 40 41 42 43 44 45 46 47 48 49 50
000
ASUS43 KMPX 251310
RWRMN
WEATHER ROUNDUP FOR MINNESOTA
NATIONAL WEATHER SERVICE TWIN CITIES/CHANHASSEN MN
700 AM CST TUE NOV 25 2014


NOTE: "FAIR" INDICATES FEW OR NO CLOUDS BELOW 12,000 FEET WITH NO
SIGNIFICANT WEATHER AND/OR OBSTRUCTIONS TO VISIBILITY. N/A MEANS
CURRENT SKY AND/OR WEATHER CONDITIONS ARE NOT AVAILABLE.

MNZ060>063-068>070-251400-
   Twin Cities Metro

CITY           SKY/WX    TMP DP  RH WIND       PRES   REMARKS
TWIN CITIES    CLEAR     10   6  84 W3        30.03R
ST PAUL        CLEAR     11   6  81 NW3       30.04S
CRYSTAL        CLEAR     11   6  81 CALM      30.01S
BLAINE         CLEAR     10   9  92 CALM      30.01R
LAKEVILLE      CLEAR      9   7  92 SW3       30.02S
EDEN PRAIRIE   CLEAR     10   6  84 W5        30.02R WCI   2
SOUTH ST PAUL  CLEAR     11   7  84 CALM      30.03S
LAKE ELMO      FAIR      10   7  85 CALM      30.02S
$$
MNZ001>005-007-008-013>017-022>024-027-028-251400-
   Northwest Minnesota

CITY           SKY/WX    TMP DP  RH WIND       PRES   REMARKS
BEMIDJI        CLOUDY     6   1  83 CALM      29.92S
HALLOCK        CLEAR      5   1  85 CALM      29.95R
ROSEAU         FAIR       1  -6  71 S5        29.92S WCI  -8
WARROAD        MOCLDY     1  -2  85 CALM      29.92S
THIEF RVR FALL CLOUDY    12   7  79 S7        29.92F WCI   2
CROOKSTON      CLOUDY    16   9  73 S6        29.96S WCI   7
FOSSTON        CLOUDY     9   5  85 S8        29.93S WCI  -4
DETROIT LAKES  CLOUDY    16   9  73 SW3       29.93F
MOORHEAD       CLOUDY    18  14  86 S7        29.96S WCI   8
PARK RAPIDS    CLOUDY     9   5  84 S3        29.92F
MAHNOMEN       CLOUDY    12   6  78 S3        29.93S
$$
MNZ006-009>011-018-025>026-251400-
   North Central Minnesota

CITY           SKY/WX    TMP DP  RH WIND       PRES   REMARKS
BAUDETTE       PTCLDY    -2  -6  83 CALM      29.92R
FLAG ISLAND    MOCLDY     0  -4  85 CALM      29.91S
INTL FALLS     CLEAR     -3  -8  79 SW3       29.92S
WASKISH        CLEAR     -2  -6  84 CALM      29.93R
BIG FORK       CLEAR     -4  -8  84 CALM      29.93R
LONGVILLE      MOCLDY    -2  -6  84 CALM      29.94S
GRAND RAPIDS   CLOUDY     5   1  85 NW3       29.92R
CRANE LAKE     LGT SNOW   7   3  85 S3        29.94R
ORR            PTCLDY     3   0  85 CALM      29.90R
COOK           FLURRIES   5   3  92 W7        29.92R WCI  -7
WALKER         CLOUDY     4   1  85 CALM      29.93S
$$
MNZ012-019>021-037-251400-
   Northeast Minnesota

CITY           SKY/WX    TMP DP  RH WIND       PRES   REMARKS
DULUTH         PTCLDY     9   4  80 NW10      29.89S WCI  -5
ELY            LGT SNOW   0  -4  85 CALM      29.90S
HIBBING        CLEAR      0  -6  76 CALM      29.92R
EVELETH        PTCLDY     7   3  85 CALM      29.92S
DULUTH HARBOR  CLEAR     16   9  73 CALM      29.98S
TWO HARBORS    PTCLDY    12   7  79 CALM      29.91R
SILVER BAY     FLURRIES   9   5  85 CALM      29.89S
GRAND MARAIS     N/A      8   4  83 N3        29.92R
G MARAIS ARPRT CLEAR      3   0  85 NW10G21   29.80R WCI -12
$$
MNZ029>031-032-039>041-046>048-054>057-064-251400-
   West Central Minnesota

CITY           SKY/WX    TMP DP  RH WIND       PRES   REMARKS
FERGUS FALLS   CLOUDY    14   7  73 SE6       29.99F WCI   5
WHEATON        CLOUDY    16   9  73 SE6       29.99F WCI   7
MORRIS           N/A     12   9  85 S5        29.97F WCI   4
ALEXANDRIA     CLOUDY    12   5  73 SW5       29.96F WCI   4
ELBOW LAKE       N/A     13   7  79 S5        29.96S WCI   5
WADENA         CLOUDY    10   5  79 CALM      29.93F
GLENWOOD       MOCLDY    10   7  85 SW6       29.98S WCI   1
APPLETON       MOCLDY    12   7  79 SE3       30.00F
BENSON         CLOUDY     9   5  85 S3        29.99F
ORTONVILLE     PTCLDY    12   7  79 S5        29.98F WCI   4
MADISON        PTCLDY    19  12  73 SE5       30.00F WCI  13
WILLMAR        FAIR       9   1  72 SW5       30.02F WCI   0
$$
MNZ033>034-036-042>043-049>051-058-059-251400-
   Central Minnesota

CITY           SKY/WX    TMP DP  RH WIND       PRES   REMARKS
ST CLOUD       CLEAR      7   2  80 CALM      30.00R
SAUK CENTRE    CLOUDY     9   4  79 CALM      29.98F
PAYNESVILLE    MOCLDY     3   0  86 SW5       30.01S WCI  -6
AITKIN         CLEAR      7   1  78 CALM      29.94S
PINE RIVER     CLOUDY     3   1  92 CALM      29.98S
BRAINERD       MOCLDY     3   1  91 SW3       29.97R
STAPLES        CLOUDY     9   7  92 CALM      29.95F
LONG PRAIRIE   CLOUDY    10   5  79 CALM      29.97S
LITTLE FALLS   CLOUDY     7   3  85 CALM      30.00R
LITCHFIELD     CLEAR     10   7  85 CALM      30.01S
BUFFALO        CLEAR     10   6  85 W3        30.02R
MAPLE LAKE     CLEAR      9   6  91 W5        30.02R WCI   0
$$
MNZ037-044-045-052-053-251400-
   East Central Minnesota

CITY           SKY/WX    TMP DP  RH WIND       PRES   REMARKS
PRINCETON      CLEAR      9   3  78 CALM      29.99S
MORA           CLEAR      9   5  85 W3        29.99S
CAMBRIDGE      CLEAR      9   1  72 CALM      29.98S
RUSH CITY      CLEAR      7   4  88 CALM      29.99F
MOOSE LAKE     CLEAR      9   5  85 CALM      29.95R
HINCKLEY       FAIR      10   9  92 CALM      29.97S
CLOQUET        FLURRIES   9   5  85 W6        29.92S WCI  -1
MCGREGOR       CLEAR      9   5  85 CALM      29.96R
$$
MNZ071>073-080-081-089-090-097-098-251400-
   Southwest Minnesota

CITY           SKY/WX    TMP DP  RH WIND       PRES   REMARKS
MONTEVIDEO     PTCLDY     9   5  85 CALM      30.02F
GRANITE FALLS  PTCLDY    10   5  80 CALM      30.04S
CANBY          CLOUDY    19   7  59 SW3       30.00F
MARSHALL       CLEAR     16   3  57 W6        30.00F WCI   7
REDWOOD FALLS  CLEAR     12   4  70 W3        30.04S
OLIVIA         CLEAR     10   5  79 W5        30.03R WCI   2
PIPESTONE      MOCLDY    10   7  85 SW5       29.99F WCI   2
WINDOM         CLEAR      9   3  78 CALM      30.02S
WORTHINGTON    CLEAR     10   5  79 W8        30.03R WCI  -1
JACKSON        MOCLDY    12   5  73 SW5       30.02S WCI   4
TRACY          PTCLDY    15   7  68 SW7       30.01S WCI   6
SLAYTON        CLEAR     13   4  69 SW8       30.01S WCI   2
$$
MNZ065>067-074>077-082>085-091>093-251400-
   South Central Minnesota

CITY           SKY/WX    TMP DP  RH WIND       PRES   REMARKS
MANKATO        CLEAR     10   1  67 SW3       30.03S
NEW ULM        CLEAR      5   1  85 W6        30.03S WCI  -6
ST JAMES       CLEAR     10   5  79 SW6       30.05R WCI   1
FAIRMONT       CLEAR     12   3  67 W5        30.03S WCI   4
GLENCOE        CLEAR     10   7  87 W3        30.03R
FARIBAULT      CLEAR      7   5  92 SW5       30.03R WCI  -2
OWATONNA       CLEAR      7   3  85 SW6       30.02R WCI  -3
WASECA         CLEAR      7   1  78 W3        30.04S
ALBERT LEA     CLEAR      9   7  92 W3        30.02S
$$
MNZ078>079-086>088-094>096-251400-
   Southeast Minnesota

CITY           SKY/WX    TMP DP  RH WIND       PRES   REMARKS
ROCHESTER      CLEAR      9   6  88 W7        30.00S WCI  -2
RED WING       FLURRIES  16   9  73 NW3       30.02S
STANTON        CLEAR      8   5  84 SW3       30.02R
DODGE CENTER   PTCLDY     9   7  92 W7        30.00R WCI  -3
WINONA         CLOUDY    19  14  79 NW7       30.03S WCI  10
AUSTIN         CLEAR      9   7  92 NW6       30.01S WCI  -1
PRESTON        FLURRIES   7   4  89 NW6       30.01S WCI  -3
$$
ABBREVIATIONS USED IN REMARKS
   TC - TEMPERATURES IN CELSIUS
  WCI - WIND CHILL INDEX
   HX - HEAT INDEX
  VSB - VISIBILITY
$$



USA.gov is the U.S. government's official web portal to all federal, state and local government web resources and services.